Regional Weather Roundup
Issued by NWS Goodland, KS

Home | Current Version | Previous Version | Text Only | Print | Product List | Glossary Off
Versions: 1 2 3 4 5 6 7 8 9 10 11 12 13 14 15 16 17 18 19 20 21 22 23 24 25 26 27 28 29 30 31 32 33 34 35 36 37 38 39 40 41 42 43 44 45 46 47 48 49 50

000
ASUS43 KGLD 061008
RWRGLD

GOODLAND FORECAST AREA HOURLY WEATHER ROUNDUP
NATIONAL WEATHER SERVICE GOODLAND KS
400 AM MDT MON JUL 06 2015

...OFFICIAL OBSERVATIONS...

CITY           SKY/WX    TMP DP  RH WIND       PRES   REMARKS
GOODLAND KS    CLOUDY    67  65  93 N15       29.96R
HILL CITY KS   MOCLDY    80  65  59 CALM      29.84R
IMPERIAL NEB   CLOUDY    65  62  90 N16       29.98S
MCCOOK NEB     CLOUDY    69  66  90 NE9       29.88R
AKRON CO       CLOUDY    63  60  90 N18       30.09R
BURLINGTON CO  LGT RAIN  65  63  93 N16G25    30.02R
LIMON CO       CLOUDY    62  60  93 N13       30.13R
$$

...UNOFFICIAL OBSERVATIONS...

CITY           SKY/WX    TMP DP  RH WIND       PRES   REMARKS
COLBY KS       PTCLDY    72  68  88 NW12      29.91R
GOVE KS          N/A     75  32  20 MISG        N/A
NORTON KS      CLEAR     70  63  78 N14       29.85R
SHARON SPRINGS   N/A     69  64  85 NW16G26     N/A
KIT CARSON CO    N/A     65  61  87 MISG        N/A
YUMA CO          N/A     65  61  88 N7          N/A
$$


USA.gov is the U.S. government's official web portal to all federal, state and local government web resources and services.